[[{"header":{"parameterUnit":"m.s-1","parameterCategory":1,"la1":30.2991,"la2":30.254,"lo1":-89.0895,"lo2":-89.0444,"dy":0.0017,"dx":0.0017,"nx":28,"ny":28,"refTime":"2025-08-15T21:00:00:Z","depth":0,"parameterNumber":2,"parameterNumberName":"U-component_of_WINDS"},"data":[0,0,0,0,0,0,0,0,0,0,0,0,0,0,0,0,0,0,0,0,0,0,0,0,0,0,0,0,0,0,0,0,0,0,0,0,0,0,0,0,0,0,0,0,0,0,0,0,0,0,0,0,0,0,0,0,0,0,-0.9239,-0.9239,0,-0.9295,-0.9296,-0.9296,-0.9353,-0.9354,-0.9354,-0.9355,-0.9412,-0.9412,-0.9413,0,0,0,0,0,0,0,0,0,0,0,0,0,-0.9178,-0.9179,-0.9238,-0.9239,-0.924,-0.9295,-0.9296,-0.9296,-0.9353,-0.9354,-0.9355,-0.9356,-0.9411,-0.9412,-0.9413,0,0,0,0,0,0,0,0,0,0,0,0,0,-0.9217,-0.9179,-0.9238,-0.9275,-0.9279,-0.9295,-0.9296,-0.9297,-0.9353,-0.9354,-0.9355,-0.9356,-0.9411,-0.9412,-0.9413,-0.9398,0,0,-0.9417,-0.9418,0,0,0,0,0,0,0,0,-0.9214,-0.9219,-0.9269,-0.9272,-0.9277,-0.9318,-0.9295,-0.9331,-0.9352,-0.9324,-0.9355,-0.9357,-0.938,-0.9383,-0.9391,-0.9401,-0.9403,-0.9417,-0.9418,-0.9418,-0.9419,0,0,0,0,0,0,0,-0.9212,-0.9217,-0.9261,-0.9269,-0.9274,-0.9288,-0.9295,-0.9302,-0.9345,-0.9327,-0.9331,-0.9337,-0.9382,-0.939,-0.9393,-0.9404,-0.9417,-0.9418,-0.9419,-0.9419,-0.9404,-0.9403,0,0,0,0,0,0,-0.9204,-0.9214,-0.9259,-0.9263,-0.9248,-0.9288,-0.9295,-0.9304,-0.9345,-0.9352,-0.9336,-0.934,-0.9388,-0.9392,-0.9395,-0.938,-0.9418,-0.942,-0.942,-0.9405,-0.9403,-0.9402,0,0,0,0,0,0,-0.9202,-0.9207,-0.9257,-0.9239,-0.9247,-0.9288,-0.9296,-0.9304,-0.9313,-0.9352,-0.936,-0.9337,-0.9389,-0.9394,-0.9397,-0.9383,-0.942,-0.9421,-0.9406,-0.9404,-0.9403,-0.935,0,0,0,0,0,0,-0.92,-0.9206,-0.9201,-0.9239,-0.9248,-0.9258,-0.9296,-0.9304,-0.9315,-0.932,-0.9355,-0.9361,-0.939,-0.9395,-0.9398,-0.9385,-0.9422,-0.9408,-0.9405,-0.9403,-0.9353,-0.9347,-0.9341,0,0,0,0,0,-0.9198,-0.9183,-0.92,-0.9205,-0.9242,-0.9257,-0.9262,-0.9295,-0.9313,-0.9308,-0.9334,-0.936,-0.9384,-0.9395,-0.9399,-0.9386,-0.9409,-0.9406,-0.9403,-0.9356,-0.9348,-0.9341,0,0,0,0,0,0,-0.9142,-0.9189,-0.9208,-0.9206,-0.9227,-0.9266,-0.9261,-0.9286,-0.9301,-0.9305,-0.9346,-0.9353,-0.9352,-0.937,-0.9381,-0.9374,-0.94,-0.9398,-0.9362,-0.9355,-0.9349,-0.9345,-0.9423,0,0,0,0,0,-0.913,-0.9138,-0.9179,-0.9172,-0.9182,-0.9219,-0.9227,-0.9251,-0.9274,-0.9283,-0.9309,-0.933,-0.9343,-0.935,-0.9363,-0.9356,-0.9364,-0.9349,-0.9343,-0.9338,-0.9336,-0.9334,-0.9327,-0.9394,-0.9394,-0.9394,0,0,-0.9104,-0.913,-0.9133,-0.9162,-0.9181,-0.9189,-0.9227,-0.9233,-0.9239,-0.9284,-0.9289,-0.9309,-0.9335,-0.9333,-0.9333,-0.9348,-0.932,-0.9335,-0.933,-0.9331,-0.933,-0.9324,-0.9318,-0.9392,-0.9392,-0.9393,0,0,-0.9061,-0.9082,-0.9079,-0.9098,-0.9126,-0.9151,-0.9151,-0.9186,-0.9201,-0.9207,-0.9241,-0.9249,-0.9269,-0.9287,-0.9298,-0.9262,-0.9287,-0.9265,-0.9234,-0.9231,-0.9226,-0.9221,-0.9209,-0.9204,-0.9263,-0.9263,-0.9263,0,-0.9025,-0.9038,-0.9075,-0.9079,-0.9091,-0.9133,-0.913,-0.9146,-0.9178,-0.9184,-0.92,-0.9227,-0.9247,-0.925,-0.9241,-0.9249,-0.925,-0.9261,-0.9224,-0.922,-0.9216,-0.9205,-0.92,-0.926,-0.926,-0.9261,-0.9261,0,-0.8993,-0.9001,-0.8996,-0.9026,-0.9037,-0.9038,-0.9074,-0.9081,-0.9104,-0.9127,-0.9132,-0.9159,-0.9178,-0.9181,-0.9203,-0.9187,-0.9195,-0.9216,-0.9244,-0.9206,-0.9196,-0.9192,-0.9256,-0.9257,-0.9258,-0.9258,0,0,-0.8916,-0.8966,-0.8964,-0.8978,-0.9013,-0.902,-0.9023,-0.9043,-0.9048,-0.9068,-0.9071,-0.9088,-0.9108,-0.9121,-0.9146,-0.9143,-0.9113,-0.9166,-0.9167,-0.9155,-0.9098,-0.9081,-0.9076,-0.913,-0.913,-0.9129,-0.9096,0,-0.8879,-0.8887,-0.892,-0.8919,-0.8927,-0.8967,-0.897,-0.8991,-0.9013,-0.9023,-0.9047,-0.9058,-0.9084,-0.9092,-0.9092,-0.9117,-0.9102,-0.912,-0.9134,-0.9134,-0.9126,-0.907,-0.9053,-0.902,-0.9092,-0.9091,-0.9091,0,-0.8837,-0.8855,-0.8854,-0.889,-0.8894,-0.8896,-0.8917,-0.8926,-0.8951,-0.8968,-0.8982,-0.901,-0.9015,-0.904,-0.9048,-0.9059,-0.9067,-0.908,-0.908,-0.9083,-0.911,-0.9072,-0.901,-0.9005,-0.9085,-0.9085,-0.9086,0,-0.8782,-0.8806,-0.8809,-0.882,-0.886,-0.8861,-0.8878,-0.8904,-0.8914,-0.8932,-0.8939,-0.8957,-0.8967,-0.8981,-0.9013,-0.9028,-0.9017,-0.9045,-0.903,-0.9029,-0.9026,-0.9026,-0.8965,-0.903,-0.9031,-0.9031,-0.9031,0,-0.8737,-0.8735,-0.8784,-0.8786,-0.8785,-0.8823,-0.8821,-0.8841,-0.8864,-0.8871,-0.8906,-0.8911,-0.8953,-0.8963,-0.8988,-0.8991,-0.8995,-0.9008,-0.9015,-0.9005,-0.9003,-0.9011,-0.9014,-0.9029,-0.903,-0.903,-0.903,0,-0.8675,-0.8708,-0.8714,-0.8752,-0.8762,-0.8759,-0.8792,-0.8795,-0.8819,-0.8827,-0.8831,-0.8868,-0.8882,-0.8915,-0.8937,-0.8954,-0.895,-0.8962,-0.8942,-0.8946,-0.893,-0.8931,-0.8872,-0.8866,-0.8934,-0.8934,-0.8933,0,-0.8645,-0.8644,-0.8683,-0.869,-0.8705,-0.8716,-0.8727,-0.8764,-0.8773,-0.8802,-0.8801,-0.8818,-0.8833,-0.8852,-0.8882,-0.8899,-0.8912,-0.889,-0.8915,-0.8905,-0.8912,-0.8912,-0.8912,-0.8885,-0.8884,-0.8883,-0.8882,0,-0.8587,-0.8604,-0.8618,-0.8637,-0.8649,-0.8666,-0.8685,-0.8689,-0.873,-0.8739,-0.8754,-0.8765,-0.8788,-0.8804,-0.8826,-0.8843,-0.887,-0.8874,-0.8872,-0.8862,-0.885,-0.8857,-0.8927,-0.8875,-0.8876,-0.8877,-0.8877,-0.8877,-0.8541,-0.8542,-0.857,-0.8584,-0.8602,-0.8619,-0.8624,-0.8649,-0.8662,-0.8684,-0.8705,-0.8717,-0.8743,-0.8775,-0.879,-0.8801,-0.8814,-0.881,-0.881,-0.8808,-0.8804,-0.8849,-0.8805,-0.8805,-0.8805,-0.8805,-0.8805,0,-0.8485,-0.8505,-0.8518,-0.8544,-0.8555,-0.8579,-0.8602,-0.8609,-0.862,-0.8642,-0.8656,-0.8673,-0.8689,-0.8719,-0.8738,-0.874,-0.8752,-0.8743,-0.8744,-0.8747,-0.8791,-0.8791,-0.8733,-0.8733,-0.8733,-0.8733,-0.8733,-0.8733,-0.8458,-0.8462,-0.8482,-0.8495,-0.8515,-0.8528,-0.8538,-0.8554,-0.8572,-0.8589,-0.8603,-0.8623,-0.8648,-0.8669,-0.8684,-0.8693,-0.8698,-0.8685,-0.8697,-0.8737,-0.8744,-0.8751,-0.8751,-0.8686,-0.8686,-0.8653,-0.8653,-0.8653]},{"header":{"parameterUnit":"m.s-1","parameterCategory":1,"la1":30.2991,"la2":30.254,"lo1":-89.0895,"lo2":-89.0444,"dy":0.0017,"dx":0.0017,"nx":28,"ny":28,"refTime":"2025-08-15T21:00:00:Z","depth":0,"parameterNumber":3,"parameterNumberName":"V-component_of_WINDS"},"data":[0,0,0,0,0,0,0,0,0,0,0,0,0,0,0,0,0,0,0,0,0,0,0,0,0,0,0,0,0,0,0,0,0,0,0,0,0,0,0,0,0,0,0,0,0,0,0,0,0,0,0,0,0,0,0,0,0,0,-1.6299,-1.6299,0,-1.6261,-1.6261,-1.626,-1.6212,-1.6211,-1.621,-1.621,-1.6171,-1.6171,-1.6171,0,0,0,0,0,0,0,0,0,0,0,0,0,-1.6331,-1.633,-1.6299,-1.6299,-1.6298,-1.6261,-1.6261,-1.626,-1.6212,-1.6211,-1.621,-1.6209,-1.6171,-1.6171,-1.6171,0,0,0,0,0,0,0,0,0,0,0,0,0,-1.6307,-1.633,-1.6299,-1.627,-1.6267,-1.6261,-1.6261,-1.626,-1.6212,-1.6211,-1.621,-1.6209,-1.6172,-1.6171,-1.6171,-1.6192,0,0,-1.6169,-1.6169,0,0,0,0,0,0,0,0,-1.6309,-1.6306,-1.6274,-1.6272,-1.6268,-1.624,-1.6258,-1.6237,-1.6212,-1.6233,-1.621,-1.6208,-1.6195,-1.6193,-1.6188,-1.619,-1.6188,-1.6169,-1.6169,-1.6169,-1.6169,0,0,0,0,0,0,0,-1.631,-1.6308,-1.6284,-1.6274,-1.627,-1.6259,-1.6254,-1.6254,-1.6221,-1.6231,-1.6227,-1.6224,-1.6193,-1.6189,-1.6187,-1.6188,-1.6169,-1.6169,-1.6169,-1.6169,-1.6207,-1.6208,0,0,0,0,0,0,-1.6316,-1.6309,-1.6285,-1.6283,-1.6286,-1.6259,-1.6254,-1.625,-1.6221,-1.6215,-1.6225,-1.6221,-1.619,-1.6188,-1.6185,-1.621,-1.6169,-1.6169,-1.6168,-1.6206,-1.6207,-1.6208,0,0,0,0,0,0,-1.6317,-1.6315,-1.6287,-1.6295,-1.6291,-1.626,-1.6256,-1.625,-1.6246,-1.6216,-1.621,-1.6226,-1.6189,-1.6186,-1.6191,-1.6208,-1.6168,-1.6168,-1.6204,-1.6206,-1.6208,-1.6258,0,0,0,0,0,0,-1.6318,-1.6315,-1.6323,-1.6296,-1.629,-1.6293,-1.6257,-1.625,-1.6245,-1.624,-1.6216,-1.6211,-1.6188,-1.6192,-1.6191,-1.6206,-1.6168,-1.6202,-1.6205,-1.6207,-1.6255,-1.6261,-1.6267,0,0,0,0,0,-1.632,-1.6338,-1.6323,-1.632,-1.6299,-1.6294,-1.6291,-1.6264,-1.6246,-1.6254,-1.6235,-1.6211,-1.6206,-1.6193,-1.6191,-1.6207,-1.6201,-1.6204,-1.6207,-1.6252,-1.626,-1.6267,0,0,0,0,0,0,-1.6367,-1.6334,-1.6317,-1.6327,-1.6314,-1.6285,-1.6294,-1.6273,-1.6265,-1.6261,-1.6228,-1.6223,-1.6233,-1.622,-1.6206,-1.6227,-1.62,-1.6203,-1.6235,-1.6242,-1.6248,-1.6252,-1.6167,0,0,0,0,0,-1.6379,-1.6377,-1.6348,-1.6359,-1.6353,-1.6325,-1.6322,-1.6303,-1.6287,-1.6282,-1.6263,-1.625,-1.6245,-1.6243,-1.6236,-1.6252,-1.6247,-1.6262,-1.6268,-1.6274,-1.6277,-1.6286,-1.6293,-1.6218,-1.6218,-1.6218,0,0,-1.6403,-1.6384,-1.6385,-1.6368,-1.6356,-1.6356,-1.6321,-1.6321,-1.6321,-1.6282,-1.6286,-1.6272,-1.6255,-1.6266,-1.6269,-1.6255,-1.6296,-1.6277,-1.6282,-1.6282,-1.629,-1.6297,-1.6304,-1.622,-1.6219,-1.6219,0,0,-1.6446,-1.6432,-1.644,-1.6429,-1.641,-1.6392,-1.6394,-1.6369,-1.6359,-1.6362,-1.6333,-1.6333,-1.6325,-1.6314,-1.6308,-1.635,-1.6329,-1.6349,-1.6382,-1.6391,-1.6397,-1.6402,-1.6419,-1.6426,-1.6352,-1.6352,-1.6352,0,-1.6479,-1.6477,-1.6448,-1.6451,-1.6445,-1.641,-1.6419,-1.6409,-1.639,-1.6387,-1.6372,-1.6363,-1.6348,-1.6357,-1.6368,-1.6363,-1.6366,-1.6352,-1.6399,-1.6403,-1.6408,-1.6424,-1.643,-1.6355,-1.6354,-1.6354,-1.6354,0,-1.6518,-1.6518,-1.6527,-1.651,-1.6505,-1.6512,-1.6485,-1.6483,-1.6465,-1.6448,-1.6453,-1.6435,-1.6425,-1.6426,-1.6407,-1.6433,-1.6425,-1.6404,-1.6377,-1.6418,-1.6433,-1.6438,-1.6359,-1.6358,-1.6357,-1.6356,0,0,-1.6591,-1.6559,-1.6563,-1.6556,-1.6533,-1.6533,-1.6538,-1.6529,-1.653,-1.6517,-1.6522,-1.6517,-1.6499,-1.6492,-1.6472,-1.648,-1.6517,-1.6458,-1.6458,-1.6472,-1.6547,-1.6564,-1.6571,-1.6502,-1.6503,-1.6504,-1.6549,0,-1.6632,-1.664,-1.6614,-1.6629,-1.6629,-1.6596,-1.66,-1.6588,-1.6573,-1.6571,-1.6554,-1.6552,-1.6526,-1.6522,-1.6528,-1.6511,-1.6532,-1.6507,-1.6508,-1.6508,-1.6515,-1.6578,-1.6596,-1.6639,-1.6554,-1.6555,-1.6555,0,-1.6681,-1.6673,-1.6688,-1.6666,-1.6665,-1.667,-1.6661,-1.6659,-1.6645,-1.6633,-1.6626,-1.6604,-1.6608,-1.6582,-1.6589,-1.6573,-1.6571,-1.6563,-1.6564,-1.6564,-1.6535,-1.6582,-1.6652,-1.6659,-1.6564,-1.6563,-1.6562,0,-1.6736,-1.6728,-1.6736,-1.673,-1.6705,-1.671,-1.67,-1.6684,-1.6681,-1.6673,-1.6671,-1.6663,-1.666,-1.6655,-1.6631,-1.6613,-1.6642,-1.6613,-1.6634,-1.6635,-1.6643,-1.6643,-1.6715,-1.6639,-1.6639,-1.6638,-1.6638,0,-1.6785,-1.6796,-1.676,-1.6766,-1.6777,-1.6748,-1.6761,-1.6747,-1.6734,-1.6736,-1.6706,-1.671,-1.6678,-1.6678,-1.6659,-1.6669,-1.6667,-1.6659,-1.6654,-1.6663,-1.6664,-1.6663,-1.666,-1.664,-1.664,-1.6639,-1.6639,0,-1.6848,-1.6824,-1.6832,-1.6808,-1.6802,-1.6812,-1.6791,-1.6796,-1.6779,-1.6783,-1.6782,-1.6756,-1.6755,-1.673,-1.6723,-1.6711,-1.673,-1.6718,-1.6735,-1.6732,-1.6755,-1.6754,-1.6831,-1.684,-1.6756,-1.6757,-1.6758,0,-1.6882,-1.689,-1.6867,-1.6867,-1.6859,-1.6858,-1.6856,-1.6827,-1.6826,-1.6811,-1.6818,-1.6814,-1.681,-1.681,-1.679,-1.6785,-1.6775,-1.6802,-1.6774,-1.6783,-1.6778,-1.6779,-1.678,-1.6809,-1.681,-1.6811,-1.6811,0,-1.6946,-1.6934,-1.6931,-1.6925,-1.6922,-1.6916,-1.6907,-1.6909,-1.6878,-1.6878,-1.6877,-1.6873,-1.6867,-1.6865,-1.6857,-1.6847,-1.6825,-1.682,-1.6825,-1.6835,-1.6845,-1.6842,-1.6753,-1.6819,-1.6818,-1.6817,-1.6817,-1.6817,-1.6997,-1.7003,-1.6989,-1.6987,-1.6978,-1.6971,-1.6975,-1.6958,-1.6957,-1.695,-1.6933,-1.6935,-1.6922,-1.6909,-1.6901,-1.6903,-1.6889,-1.6896,-1.6898,-1.6901,-1.6906,-1.6844,-1.6901,-1.6901,-1.6901,-1.69,-1.69,0,-1.7061,-1.705,-1.7049,-1.7039,-1.7038,-1.7016,-1.7006,-1.7007,-1.7009,-1.6999,-1.6996,-1.6995,-1.6993,-1.6974,-1.697,-1.6975,-1.6965,-1.6975,-1.6975,-1.6974,-1.6918,-1.6915,-1.6984,-1.6983,-1.6983,-1.6983,-1.6983,-1.6983,-1.7094,-1.7105,-1.7092,-1.7097,-1.7086,-1.7088,-1.7085,-1.7079,-1.7071,-1.7072,-1.707,-1.7057,-1.7044,-1.7039,-1.7037,-1.7031,-1.7032,-1.7046,-1.7037,-1.6986,-1.6978,-1.697,-1.6967,-1.7046,-1.7046,-1.7094,-1.7094,-1.7094]}]]